Showing default

QIANFAN-177, 69394

Orbit data source: Space-Track

QIANFAN-177, 69394 is a Chinese payload satellite in LEO that was launched on Thu, 04 Jun 2026 UTC via a CHANG ZHENG 6A launch vehicle from the Taiyaun Space Center, China (TSC). Payload-class satellites include a variety of spacecraft equipped with specific instruments for various scientific and technological missions. These include communications satellites like Starlink; space stations such as the ISS; scientific satellites like the Hubble; Earth observation satellites from companies like Planet Labs, Umbra, and HawkEye 360; GPS; miniature CubeSats for education and research; and military/defense satellites.

Loading next visibility...
Identifier
69394, 2026-124N
Orbit
LEO
Country
Flag of CNCN / PRC
Related business
Manufacturer
GESIH
Mission
Operational spacecraft
Bus & Motor
QIANFAN, Unknown motor
Mass
267 kg wet, ~267 kg dry
Launch date (UTC)
2026-06-04 (2 weeks ago)
Launch vehicle
CHANG ZHENG 6A
Launch site
Taiyaun Space Center, China (TSC)
Object type
Payload
Rocket body
Debris
Shape & HBR
Unknown
Radar Cross Section
Large (>1 m²)

Expand to show TLE details & history
Last TLE update: 9 hours ago

TLE from 9 hours ago
0 QIANFAN-177
1 69394U 26124N   26171.46798762  .00000065  00000-0  22466-4 0  9997
2 69394  88.9983   1.6587 0003879 137.6601 222.4890 14.22730564  2289
Epoch: 2026-06-20T11:13Z
TLE epoch observation values (Epoch: 2026-06-20T11:13:54.130Z)
Latitude
-0.00007°
Longitude
-75.49903°
Altitude
821.249 km
Speed
7.441 km/s
True Right ascension
00h 06m 38s
True Declination
0° 00' 00"
Sunlit
Object was in daylight at epoch
Visualization orbit readout
Latitude
Unknown
Longitude
Unknown
Altitude
Unknown
Speed
Unknown
Apparent Right ascension
Unknown
Apparent Declination
Unknown
Sunlit
N/A
Visualization observer readout
Local Sidereal Time
07:13:15
Azimuth
Unknown
Elevation
Unknown
Doppler factor
Unknown
Orbital elements
Apogee altitude
815.87 km
Perigee altitude
810.291 km
Semi-major axis
7,191.217 km
Eccentricity
0.00039
Inclination
88.9983°
RAAN
1.6587°
Arg. of periapsis
137.6601°
True anomaly
222.45899°
Mean anomaly
222.489°
Eccentric anomaly
222.47399°
Mean motion
3.55909 °/min
Orbital period
101.15 mins
BSTAR
0.000022466
Loading maneuver chart data...
Computing Atmospheric mass density...
Loading historical data...
Loading historical data...
Loading historical data...
Loading historical data...
Loading historical data...
Loading historical data...
Loading historical data...

Documentation

Showing up to 5 results
|